Regional Weather Roundup
Issued by NWS New Orleans/Baton Rouge, LA

Home | Current Version | Previous Version | Text Only | Print | Product List | Glossary On
Versions: 1 2 3 4 5 6 7 8 9 10 11 12 13 14 15 16 17 18 19 20 21 22 23 24 25 26 27 28 29 30 31 32 33 34 35 36 37 38 39 40 41 42 43 44 45 46 47 48 49 50
854
ASUS44 KLIX 282010
RWRLIX
NEW ORLEANS REGIONAL WEATHER ROUNDUP
NATIONAL WEATHER SERVICE NEW ORLEANS LA
200 PM CST SAT FEB 28 2015

NOTE: "FAIR" INDICATES FEW OR NO CLOUDS BELOW 12,000 FEET WITH NO
      SIGNIFICANT WEATHER AND/OR OBSTRUCTIONS TO VISIBILITY.
      SKY/WX - SKY CONDITION AND SIGNIFICANT WEATHER.
      TMP - AIR TEMPERATURE.     DP    - DEWPOINT TEMPERATURE.
      RH  - RELATIVE HUMIDITY.   PRES  - PRESSURE.
      HI  - HEAT INDEX.          WCI   - WIND CHILL INDEX.

*  THESE STATIONS ARE NOT NWS OR FAA STATIONS AND ARE NOT UNDER
   NWS QUALITY CONTROL.

LAZ038-040-048-061>063-065>067-069-282100-
SOUTHEAST LOUISIANA

CITY           SKY/WX    TMP DP  RH WIND       PRES   REMARKS
N.O. AUDUBON     N/A     62  48  60 MISG        N/A
N.O. INTL ARPT MOSUNNY   61  44  53 E8        30.31F
N.O. LAKEFRONT SUNNY     61  44  53 E13       30.32F
SLIDELL        SUNNY     65  42  43 SE8G17    30.32F
BATON ROUGE    SUNNY     66  41  40 SE10      30.30F
BOOTHVILLE     CLOUDY    56  50  80 NE13      30.31F
BELLE CHASSE   MOSUNNY   63  45  51 NE14      30.31F
BOGALUSA*        N/A     68  31  25 SE6       30.33F
GALLIANO*      PTCLDY    63  49  61 NE6       30.31S
NEW ROADS*     MOCLDY    65  39  38 E5        30.30F
GONZALES*        N/A     64  45  50 E7        30.30F
HAMMOND*       SUNNY     68  39  34 SE8       30.32F
HOUMA*         SUNNY     64  50  59 NE12      30.29F
PORT FOURCHON* CLEAR     57  50  77 E20G26    30.32F

$$

MSZ070-080>082-282100-
SOUTHERN MISSISSIPPI

CITY           SKY/WX    TMP DP  RH WIND       PRES   REMARKS
MCCOMB         SUNNY     65  32  29 E9        30.30F
GULFPORT       SUNNY     61  49  64 SE15      30.33F
BILOXI         MOSUNNY   63  49  60 SE12      30.33F
PASCAGOULA     MOSUNNY   66  44  45 E9        30.33F
STENNIS ARPT*  SUNNY     63  43  48 SE12      30.33F

$$

COASTAL OBSERVATIONS
LAKE AND NEARSHORE STATIONS

STATION/POSITION TIME  TEMP    WIND        PRES    WAVE
                       AIR SEA DIR/SP/G            HT/PER
                 (UTC) (F)     (DEG/KT/KT) (MB)    (FT/S)
PASCAGOULA       2000   60     120/  4/  7 1027.1
WAVELAND YACHT   2000   55 49  130/ 12/ 14 1027.1
GRAND ISLE       2000   56 53   80/ 15/ 20 1026.1
SOUTHWEST PASS   2000   60 47   50/ 18/ 21 1025.8
NEW CANAL        2000           80/  3/ 12 1027.0
SHELL BEACH      2000   54 52   70/ 15/ 16 1026.6

OFFSHORE STATIONS

STATION/POSITION TIME  TEMP    WIND        PRES    WAVE
                       AIR SEA DIR/SP/G            HT/PER
                 (UTC) (F)     (DEG/KT/KT) (MB)    (FT/S)
64 S DAUPHIN ISL 1935   62 71   90/ 14/ 17 1026.3    6/ 7

$$




USA.gov is the U.S. government's official web portal to all federal, state and local government web resources and services.